Weather reports worldwide

Advertisment
Calvi, France (7754): temperature & dewpoint: 23.10.2020 11:00:00 - 29.10.2020 11:00:00 (CET)Calvi, France (7754): temperature 5cm: 23.10.2020 11:00:00 - 29.10.2020 11:00:00 (CET)Calvi, France (7754): wind speed & gusts: 23.10.2020 11:00:00 - 29.10.2020 11:00:00 (CET)Calvi, France (7754): wind direction: 23.10.2020 11:00:00 - 29.10.2020 11:00:00 (CET)Calvi, France (7754): reduced air pressure: 23.10.2020 11:00:00 - 29.10.2020 11:00:00 (CET)Calvi, France (7754): visibility: 23.10.2020 11:00:00 - 29.10.2020 11:00:00 (CET)Calvi, France (7754): precipitation: 23.10.2020 11:00:00 - 29.10.2020 11:00:00 (CET)
Date & Time tt [°C] td [°C] tt 5cm [°C] ff [km/h] ff [kn] fx [km/h] fx [kn] dd ppp [hPa] vv [km] rr [mm]
29.10.2020 11:00:00 18,5 11,3 18,8 19 11 50 27 SSW 1020,3 53 0,0
29.10.2020 10:00:00 18,4 11,2 18,6 32 18 61 33 SSW 1019,2 56 0,0
29.10.2020 09:00:00 18,3 11,4 17,7 31 17 58 32 SSW 1019,2 51 0,0
29.10.2020 08:00:00 18,1 10,9 17,4 26 14 54 29 SSW 1019,4 59 0,0
29.10.2020 07:00:00 18,0 10,8 17,1 27 14 54 29 SSW 1018,8 60 0,0
29.10.2020 06:00:00 18,2 11,0 17,1 29 16 51 28 SSW 1018,7 60 0,0
29.10.2020 05:00:00 17,9 11,5 17,0 24 13 47 25 S 1018,8 60 0,0
29.10.2020 04:00:00 17,9 11,9 16,8 27 15 41 22 SSW 1019,2 60 0,0
29.10.2020 03:00:00 17,6 11,4 16,3 23 12 45 25 S 1019,6 60 0,0
29.10.2020 02:00:00 17,0 10,4 16,3 23 12 37 20 S 1019,6 60 0,0
29.10.2020 01:00:00 17,7 9,8 16,9 22 12 39 21 SSW 1019,4 60 0,0
29.10.2020 00:00:00 18,3 9,1 17,7 26 14 39 21 SSW 1019,6 60 0,0
28.10.2020 23:00:00 18,9 9,1 17,3 23 13 39 21 SSW 1019,7 60 0,0
28.10.2020 22:00:00 18,0 8,5 15,3 22 12 46 25 SW 1019,8 60 0,0
28.10.2020 21:00:00 15,9 8,1 14,8 24 13 37 20 S 1019,6 60 0,0
28.10.2020 20:00:00 16,1 8,6 15,0 14 7 32 18 S 1020,0 60 0,0
28.10.2020 19:00:00 16,0 9,6 15,1 16 8 30 16 S 1019,4 60 0,0
28.10.2020 18:00:00 16,9 7,8 15,4 12 6 29 15 SSW 1018,5 60 0,0
28.10.2020 17:00:00 16,9 10,3 16,2 8 4 22 12 SSE 1018,9 60 0,0
28.10.2020 16:00:00 19,2 9,4 21,8 12 6 30 16 SSW 1018,3 59 0,0
28.10.2020 15:00:00 19,6 9,5 22,5 17 9 29 16 SW 1017,6 50 0,0
28.10.2020 14:00:00 19,8 9,9 20,4 12 7 27 15 WSW 1018,2 60 0,0
28.10.2020 13:00:00 20,2 10,0 20,9 12 6 25 13 SSW 1018,5 60 0,0
28.10.2020 12:00:00 19,2 9,4 23,5 5 3 15 8 NNE 1019,0 55 0,0
28.10.2020 11:00:00 19,0 7,4 20,3 6 4 14 8 SSE 1018,7 48 0,0
28.10.2020 10:00:00 17,8 6,9 14,9 5 3 10 5 ESE 1018,8 55 0,0
28.10.2020 09:00:00 14,8 7,1 9,5 4 2 8 4 S 1018,5 20 0,0
28.10.2020 08:00:00 9,9 5,9 6,8 6 3 13 7 S 1018,4 60 0,0
28.10.2020 07:00:00 8,5 4,5 6,4 9 5 13 7 SSW 1017,6 60 0,0
28.10.2020 06:00:00 8,1 4,1 6,3 5 3 16 9 SSW 1017,4 60 0,0
28.10.2020 05:00:00 8,1 3,7 6,0 3 2 12 7 S 1017,0 60 0,0
28.10.2020 04:00:00 8,7 4,3 7,5 10 5 15 8 S 1016,6 60 0,0
28.10.2020 03:00:00 8,7 4,9 6,5 10 5 15 8 SSW 1016,7 60 0,0
28.10.2020 02:00:00 8,9 4,7 7,2 7 4 10 5 SSW 1016,8 60 0,0
28.10.2020 01:00:00 9,6 4,8 7,3 3 2 12 7 SW 1016,6 60 0,0
28.10.2020 00:00:00 10,8 5,1 9,4 11 6 22 12 S 1016,1 60 0,0
27.10.2020 23:00:00 12,0 5,4 10,6 12 6 23 12 SSE 1015,7 60 0,0
27.10.2020 22:00:00 12,3 6,1 10,2 9 5 16 9 SE 1015,4 60 0,0
27.10.2020 21:00:00 12,6 6,4 10,6 5 3 21 11 ESE 1014,7 60 0,0
27.10.2020 20:00:00 13,6 6,7 12,1 10 5 24 13 SSE 1013,9 60 0,0
27.10.2020 19:00:00 13,8 7,3 12,7 9 5 23 13 SSW 1013,6 59 0,0
27.10.2020 18:00:00 14,2 7,9 12,9 15 8 28 15 SSW 1013,4 60 0,0
27.10.2020 17:00:00 14,6 7,6 13,9 14 8 42 23 SSW 1012,8 60 0,0
27.10.2020 16:00:00 15,7 7,5 15,5 25 13 49 26 SSW 1012,0 60 0,0
27.10.2020 15:00:00 16,5 7,7 16,2 26 14 48 26 SSW 1011,7 36 0,0
27.10.2020 14:00:00 16,6 8,0 16,9 24 13 51 27 SSW 1011,7 20 0,0
27.10.2020 13:00:00 17,2 8,6 17,8 27 15 47 25 SSW 1011,7 32 0,0
27.10.2020 12:00:00 16,3 8,8 16,2 28 15 48 26 SW 1012,2 30 0,0
27.10.2020 11:00:00 15,4 8,2 15,3 18 10 48 26 SSW 1012,3 51 0,0
27.10.2020 10:00:00 15,2 8,0 15,0 22 12 49 27 SSW 1011,7 53 0,0
27.10.2020 09:00:00 15,3 7,6 14,4 24 13 50 27 SW 1011,2 20 0,0
27.10.2020 08:00:00 14,5 7,8 13,7 24 13 54 29 SSW 1010,6 48 0,0
27.10.2020 07:00:00 14,4 8,1 13,0 31 17 49 27 SSW 1009,4 51 0,0
27.10.2020 06:00:00 14,3 8,3 13,8 25 13 58 31 SSW 1009,3 48 0,0
27.10.2020 05:00:00 14,5 8,4 14,1 29 16 53 29 SSW 1008,8 45 0,0
27.10.2020 04:00:00 14,6 8,8 14,1 26 14 53 28 SSW 1009,0 42 0,0
27.10.2020 03:00:00 15,0 8,7 14,3 30 16 61 33 SSW 1008,8 43 0,0
27.10.2020 02:00:00 15,3 9,0 14,7 21 11 58 32 SW 1009,1 48 0,0
27.10.2020 01:00:00 15,2 8,7 14,6 19 10 56 30 SW 1008,2 59 0,0
27.10.2020 00:00:00 15,3 8,5 14,5 29 16 66 36 SSW 1007,8 60 0,0
26.10.2020 23:00:00 15,1 8,3 14,0 24 13 53 28 SW 1008,2 60 0,0
26.10.2020 22:00:00 14,8 10,0 12,9 26 14 48 26 SSW 1008,0 60 0,0
26.10.2020 21:00:00 14,4 10,8 11,8 24 13 44 24 SSW 1007,6 60 0,2
26.10.2020 20:00:00 13,6 10,8 11,8 29 16 48 26 SSW 1007,6 14 0,0
26.10.2020 19:00:00 13,8 11,0 12,2 11 6 25 14 S 1006,3 19 0,2
26.10.2020 18:00:00 13,7 10,9 12,0 9 5 19 11 S 1007,1 20 0,2
26.10.2020 17:00:00 12,8 11,4 12,2 11 6 19 11 SSW 1007,2 9 2,6
26.10.2020 16:00:00 13,4 12,6 12,5 9 5 16 9 S 1007,6 18 5,3
26.10.2020 15:00:00 13,4 11,6 12,3 7 4 61 33 ESE 1008,7 4,4 8,9
26.10.2020 14:00:00 20,1 13,8 16,6 21 12 54 29 SW 1005,1 13 0,0
26.10.2020 13:00:00 22,6 12,8 22,9 31 17 64 35 SSW 1004,7 43 0,0
26.10.2020 12:00:00 21,5 13,7 21,7 30 16 54 29 SW 1006,0 48 0,0
26.10.2020 11:00:00 22,3 12,8 23,3 28 15 51 27 SW 1006,6 15 0,0
26.10.2020 10:00:00 22,2 12,2 21,8 29 16 54 29 SSW 1006,3 60 0,0
26.10.2020 09:00:00 21,8 12,1 19,1 21 11 44 24 SSW 1007,1 40 0,0
26.10.2020 08:00:00 20,1 11,3 18,3 17 9 32 17 SSW 1007,9 59 0,0
26.10.2020 07:00:00 19,5 10,2 17,6 13 7 27 14 SSW 1007,9 60 0,0
26.10.2020 06:00:00 19,8 10,5 18,2 19 10 32 18 S 1008,6 60 0,0
26.10.2020 05:00:00 19,8 10,8 17,7 18 10 41 22 SSW 1009,4 60 0,0
26.10.2020 04:00:00 19,5 11,0 15,3 13 7 31 17 SSW 1010,2 60 0,0
26.10.2020 03:00:00 18,6 12,1 17,2 9 5 31 17 SSW 1010,8 60 0,0
26.10.2020 02:00:00 18,9 12,6 17,3 15 8 36 19 SSW 1011,5 60 0,0
26.10.2020 01:00:00 17,3 12,8 11,9 9 5 23 13 SSW 1012,2 60 0,0
26.10.2020 00:00:00 13,5 10,7 11,2 3 2 13 7 N 1012,8 59 0,0
25.10.2020 23:00:00 12,4 10,3 11,1 3 2 11 6 S 1013,5 58 0,0
25.10.2020 22:00:00 12,9 10,6 11,7 7 4 15 8 SSW 1013,9 59 0,0
25.10.2020 21:00:00 12,4 10,5 11,2 10 5 16 8 SSE 1014,4 59 0,0
25.10.2020 20:00:00 12,6 10,5 11,5 4 2 13 7 WSW 1014,6 59 0,0
25.10.2020 19:00:00 14,4 11,2 13,5 10 5 13 7 SW 1014,8 60 0,0
25.10.2020 18:00:00 16,8 11,1 15,5 8 4 19 11 SSE 1014,7 55 0,0
25.10.2020 17:00:00 19,1 11,4 18,6 10 6 32 17 NNW 1014,2 56 0,0
25.10.2020 16:00:00 21,1 12,0 23,9 15 8 32 18 N 1014,0 54 0,0
25.10.2020 15:00:00 22,9 11,9 25,6 17 9 33 18 SW 1014,0 60 0,0
25.10.2020 14:00:00 23,4 10,4 23,8 12 6 24 13 SW 1014,8 59 0,0
25.10.2020 13:00:00 22,9 9,7 23,5 17 9 35 19 SSW 1015,6 60 0,0
25.10.2020 12:00:00 22,1 10,3 23,5 21 11 34 19 SSW 1016,3 35 0,0
25.10.2020 11:00:00 21,4 9,3 21,7 19 10 41 22 SW 1016,6 48 0,0
25.10.2020 10:00:00 20,6 9,8 18,1 17 9 33 18 SSW 1017,1 53 0,0
25.10.2020 09:00:00 17,9 9,3 15,4 4 2 11 6 ENE 1017,5 18 0,0
25.10.2020 08:00:00 16,5 8,2 14,2 6 3 27 14 SE 1017,1 54 0,0
25.10.2020 07:00:00 16,5 9,2 14,8 14 8 27 15 SSW 1016,7 60 0,0
25.10.2020 06:00:00 16,2 7,9 14,9 10 6 27 15 SSW 1017,0 60 0,0
25.10.2020 05:00:00 17,2 7,8 15,6 16 9 36 19 SSW 1016,6 60 0,0
25.10.2020 04:00:00 16,4 9,3 15,1 23 13 36 19 S 1016,9 60 0,0
25.10.2020 03:00:00 15,9 10,6 14,9 16 9 35 19 S 1017,3 60 0,0
25.10.2020 02:00:00 16,8 10,9 15,0 11 6 31 17 SW 1017,8 60 0,0
25.10.2020 01:00:00 - - - - - - - - - - -
25.10.2020 00:00:00 17,2 10,8 16,4 25 13 48 26 SW 1018,4 60 0,0
24.10.2020 23:00:00 17,3 10,2 16,5 21 11 46 25 SW 1018,4 60 0,0
24.10.2020 22:00:00 17,4 9,3 16,1 22 12 37 20 SSW 1018,6 60 0,0
24.10.2020 21:00:00 17,1 9,3 15,9 17 9 37 20 SSW 1018,3 60 0,0
24.10.2020 20:00:00 16,9 8,6 15,7 15 8 35 19 SSW 1018,0 60 0,0
24.10.2020 19:00:00 17,3 9,7 16,1 23 12 43 23 S 1018,2 60 0,0
24.10.2020 18:00:00 17,1 10,7 16,4 18 10 35 19 S 1018,0 60 0,0
24.10.2020 17:00:00 17,9 11,0 17,4 20 11 47 26 S 1017,6 58 0,0
24.10.2020 16:00:00 18,7 11,0 18,6 22 12 43 23 S 1017,7 60 0,0
24.10.2020 15:00:00 19,7 11,2 19,6 22 12 50 27 S 1017,5 59 0,0
24.10.2020 14:00:00 19,3 11,8 19,6 26 14 53 28 SSW 1017,5 53 0,0
24.10.2020 13:00:00 20,4 12,9 20,7 25 13 48 26 SSW 1017,4 60 0,0
24.10.2020 12:00:00 20,4 13,1 20,9 24 13 44 24 SSW 1017,8 57 0,0
24.10.2020 11:00:00 20,5 13,0 19,5 24 13 42 23 S 1017,8 53 0,0
24.10.2020 10:00:00 20,3 12,5 17,8 19 11 41 22 SSW 1017,8 50 0,0
24.10.2020 09:00:00 18,0 12,7 15,7 17 9 29 15 SSW 1018,0 51 0,0
24.10.2020 08:00:00 17,5 14,0 15,6 14 8 29 16 S 1018,1 40 0,0
24.10.2020 07:00:00 17,7 14,2 15,8 18 10 41 22 SW 1018,0 38 0,4
24.10.2020 06:00:00 18,4 15,8 15,2 17 9 34 18 WSW 1017,6 13 0,8
24.10.2020 05:00:00 20,2 11,9 18,7 21 11 33 18 SSW 1017,1 60 0,0
24.10.2020 04:00:00 19,9 12,4 18,9 15 8 32 18 SSW 1017,1 60 0,0
24.10.2020 03:00:00 19,6 13,8 18,1 15 8 26 14 S 1017,5 55 0,0
24.10.2020 02:00:00 19,1 14,4 18,1 11 6 32 17 SSW 1018,0 49 0,0
24.10.2020 01:00:00 19,2 15,1 18,0 15 8 26 14 SSW 1018,3 40 0,0
24.10.2020 00:00:00 19,3 15,8 18,3 10 5 27 14 S 1018,7 35 0,0
23.10.2020 23:00:00 19,6 16,4 14,8 12 7 26 14 SSW 1019,0 20 0,0
23.10.2020 22:00:00 15,8 13,5 13,7 4 2 10 5 SSW 1018,9 27 0,0
23.10.2020 21:00:00 15,3 12,2 13,0 3 1 13 7 S 1018,4 36 0,0
23.10.2020 20:00:00 14,8 11,9 14,1 8 4 13 7 SSW 1018,2 45 0,0
23.10.2020 19:00:00 16,2 12,6 15,3 8 4 12 7 SSW 1018,2 43 0,0
23.10.2020 18:00:00 17,2 13,5 16,3 5 3 10 5 SSW 1018,0 25 0,0
23.10.2020 17:00:00 19,4 14,9 18,4 3 1 8 4 SW 1017,7 37 0,0
23.10.2020 16:00:00 20,5 14,4 20,7 2 1 10 5 W 1018,1 20 0,0
23.10.2020 15:00:00 20,7 15,0 21,0 6 3 8 4 N 1017,7 43 0,0
23.10.2020 14:00:00 21,3 14,0 21,9 6 4 14 7 NNE 1018,0 20 0,0
23.10.2020 13:00:00 22,1 12,4 22,9 5 3 13 7 N 1018,2 57 0,0
23.10.2020 12:00:00 22,4 12,3 24,8 4 2 13 7 N 1019,1 54 0,0
23.10.2020 11:00:00 21,9 13,5 21,3 9 5 13 7 N 1019,1 35 0,0

tt = temperature
td = dewpoint
tt 5cm = temperature 5cm
ff = wind speed
fx = gusts
dd = wind direction
ppp = reduced air pressure
vv = visibility
rr = precipitation

Next stations